Location: Bottom School (historical)
(37.9078°N, 89.3593°W)
Time: 19:56:39
(UTC+00:00)

N. Korean satellite - Visible Passes

Search period start: 08 December 2022 00:00
Search period end: 18 December 2022 00:00
Orbit: 420 x 452 km, 97.3° (Epoch: 08 December)

Date Brightness Start Highest point End Pass type
(mag) Time Alt. Az. Time Alt. Az. Time Alt. Az.
08 Dec 9.8 10:16:34 10° ENE 10:17:49 12° E 10:19:03 10° ESE visible
08 Dec 7.1 11:47:24 10° N 11:50:23 30° WNW 11:53:20 10° SW visible
09 Dec 6.6 11:08:03 10° NNE 11:11:25 67° E 11:14:42 10° S visible
09 Dec 9.1 23:08:09 10° SSW 23:10:59 25° W 23:13:52 10° NW visible
10 Dec 9.2 10:29:48 10° NE 10:32:10 18° E 10:34:30 10° SE visible
10 Dec 7.7 12:02:03 10° NNW 12:04:33 20° WNW 12:07:01 10° WSW visible
11 Dec 6.2 11:22:13 10° N 11:25:34 73° WNW 11:28:50 10° SSW visible
11 Dec 9.6 23:22:57 10° SW 23:25:10 16° W 23:27:25 10° NW visible
12 Dec 8.5 10:43:23 10° NE 10:46:17 27° E 10:49:09 10° SSE visible
12 Dec 8.2 12:16:51 10° NW 12:18:29 13° WNW 12:20:07 10° W visible
13 Dec 6.6 11:36:52 14° N 11:39:29 43° WNW 11:42:37 10° SSW visible
13 Dec 10.1 23:38:19 10° WSW 23:39:12 11° W 23:40:04 10° WNW visible
14 Dec 7.5 10:58:19 21° NE 11:00:12 43° E 11:03:20 10° S visible
15 Dec 9.7 10:19:13 10° ENE 10:20:39 12° E 10:22:04 10° ESE visible
15 Dec 7.2 11:52:35 26° NW 11:53:10 27° WNW 11:56:01 10° SW visible
16 Dec 6.5 11:13:17 54° NE 11:13:53 72° ESE 11:17:08 10° S visible
16 Dec 9.2 23:10:33 10° SSW 23:13:20 24° W 23:16:08 10° NW visible
17 Dec 9.1 10:33:50 18° E 10:34:19 18° E 10:36:40 10° SE visible
17 Dec 7.8 12:07:13 18° W 12:07:13 18° W 12:08:59 10° WSW visible
